{"data":{"norad_id":57185,"intl_designator":"2023-091V","name":"2023-091V","alt_names":[],"object_type":"PAYLOAD","status":"ACTIVE","operator":null,"country":"TBD","launch_date":"2023-06-27","launch_site_code":"VOSTO","launch_vehicle":null,"mission":null,"orbit_class":"UNKNOWN","rcs_meters":null,"size_class":null,"mass_kg":null,"dimensions":null,"purposes":[],"wikipedia_slug":null,"has_3d_model":false,"image_url":null,"decayed_at":null,"tle_current":{"epoch":"2026-09-21T21:49:38.716032Z","epoch_age_seconds":83701,"freshness":"FRESH","line1":"1 57185U 23091V   26264.90947588  .00016772  00000+0  38176-3 0  9991","line2":"2 57185  97.4967 338.2270 0007161  89.4963 270.7105 15.43012394179673","mean_motion":15.43012394,"eccentricity":0.0007161,"inclination_deg":97.4967,"raan_deg":338.227,"arg_perigee_deg":89.4963,"mean_anomaly_deg":270.7105,"bstar":0.00038176,"rev_number":17967,"period_min":93.323942542486,"perigee_km":432.34404681872,"apogee_km":442.10500759798,"semimajor_km":6815.3615272083,"source":"CELESTRAK","updated_at":"2026-09-22T09:00:26.077499Z"}}}